This demonstration page uses our WeatherBlox Daily Observations layout. Learn more.

Left ArrowRight Arrow

39.12711, -84.51439

Hourly Observations for June 21, 2017

Temp ( °F °C ) Dew Point ( °F °C ) Humidity (%) Winds ( mph kmh ) Pressure ( in mb ) Visibility ( mi km ) Precip ( " mm )
12:53 am 00:53 Clear 65 18.3 62 16.7 90 90 Calm 29.96 1015 10 16 0.00 0.00
1:53 am 01:53 Mostly Clear 65 18.3 62 16.7 90 90 Calm 29.98 1015 10 16 0.00 0.00
2:53 am 02:53 Clear 67 19.4 60 15.6 79 79 Calm 29.97 1015 10 16 0.00 0.00
3:53 am 03:53 Clear 62 16.7 60 15.6 93 93 Calm 29.97 1015 10 16 0.00 0.00
4:53 am 04:53 Clear 65 18.3 61 16.1 87 87 W 3 6 29.96 1014 10 16 0.00 0.00
5:53 am 05:53 Mostly Cloudy 63 17.2 60 15.6 90 90 SW 5 7 29.96 1015 10 16 0.00 0.00
6:53 am 06:53 Mostly Cloudy 66 18.9 60 15.6 81 81 Calm 29.97 1015 10 16 0.00 0.00
7:53 am 07:53 Mostly Cloudy 68 20 62 16.7 81 81 Calm 29.99 1016 10 16 0.00 0.00
8:53 am 08:53 Partly Cloudy 71 21.7 64 17.8 79 79 Calm 30.01 1016 10 16 0.00 0.00
9:53 am 09:53 Sunny 76 24.4 65 18.3 69 69 SSW 7 11 29.99 1016 10 16 0.00 0.00
10:53 am 10:53 Sunny 80 26.7 66 18.9 62 62 SSW 9 15 29.98 1015 10 16 0.00 0.00
11:53 am 11:53 Sunny 84 28.9 66 18.9 55 55 SW 12 19 29.97 1015 10 16 0.00 0.00
12:53 pm 12:53 Sunny 86 30 65 18.3 49 49 WSW 17 28 29.96 1015 10 16 0.00 0.00
1:53 pm 13:53 Mostly Sunny 87 30.6 67 19.4 51 51 SW 13 20 29.95 1014 10 16 0.00 0.00
2:53 pm 14:53 Mostly Sunny 88 31.1 68 20 52 52 WSW 12 19 29.94 1014 10 16 0.00 0.00
3:53 pm 15:53 Mostly Cloudy 88 31.1 68 20 52 52 SW 16 26 29.93 1014 10 16 0.00 0.00
4:53 pm 16:53 Partly Cloudy 89 31.7 69 20.6 52 52 WSW 9 15 29.93 1014 10 16 0.00 0.00
5:53 pm 17:53 Partly Cloudy 84 28.9 70 21.1 63 63 SSW 12 19 29.93 1014 10 16 0.00 0.00
6:53 pm 18:53 Mostly Cloudy 84 28.9 71 21.7 65 65 SSW 8 13 29.92 1013 10 16 0.00 0.00
7:53 pm 19:53 Cloudy 78 25.6 74 23.3 87 87 ESE 3 6 29.93 1014 10 16 0.00 0.03
8:53 pm 20:53 Mostly Cloudy 80 26.7 69 20.6 69 69 SW 9 15 29.94 1014 10 16 0.00 0.00
9:53 pm 21:53 Mostly Clear 76 24.4 71 21.7 85 85 Calm 29.95 1014 10 16 0.00 0.00
10:53 pm 22:53 Clear 73 22.8 72 22.2 96 96 Calm 29.96 1015 10 16 0.00 0.00
11:53 pm 23:53 Clear 73 22.8 71 21.7 94 94 Calm 29.97 1015 10 16 0.00 0.00

Powered by AerisWeather